Regional Weather Roundup
Issued by NWS

Home | Current Version | Previous Version | Text Only | Print | Product List | Glossary Off
Versions: 1 2 3 4 5 6 7 8 9 10 11 12 13 14 15 16 17 18 19 20 21 22 23 24 25 26 27 28 29 30 31 32 33 34 35 36 37 38 39 40 41 42 43 44 45 46 47 48 49 50

000
ASUS43 KMPX 301201
RWRMN
WEATHER ROUNDUP FOR MINNESOTA
NATIONAL WEATHER SERVICE TWIN CITIES/CHANHASSEN MN
700 AM CDT THU JUL 30 2015


NOTE: "FAIR" INDICATES FEW OR NO CLOUDS BELOW 12,000 FEET WITH NO
SIGNIFICANT WEATHER AND/OR OBSTRUCTIONS TO VISIBILITY. N/A MEANS
CURRENT SKY AND/OR WEATHER CONDITIONS ARE NOT AVAILABLE.

MNZ060>063-068>070-301300-
   Twin Cities Metro

CITY           SKY/WX    TMP DP  RH WIND       PRES   REMARKS
TWIN CITIES    CLEAR     65  55  70 W7        30.04R
6HR MIN TEMP:  63; 6HR MAX TEMP:  70;

ST PAUL        CLEAR     65  56  72 W3        30.04R
CRYSTAL        CLEAR     69  53  56 W9        30.01S
BLAINE         CLEAR     68  55  64 W8        30.02S
LAKEVILLE      CLEAR     63  54  72 W6        30.05S
EDEN PRAIRIE   CLEAR     62  55  77 W5        30.04R
6HR MIN TEMP:  60; 6HR MAX TEMP:  65;

SOUTH ST PAUL  CLEAR     65  55  70 W10       30.03S
LAKE ELMO      FAIR      63  57  82 W7        30.04R
$$
MNZ001>005-007-008-013>017-022>024-027-028-301300-
   Northwest Minnesota

CITY           SKY/WX    TMP DP  RH WIND       PRES   REMARKS
BEMIDJI        CLEAR     60  56  86 W7        29.98R
HALLOCK        PTCLDY    57  55  94 SW5       29.94S
ROSEAU         PTCLDY    61  54  77 SW6       29.93S
WARROAD        PTCLDY    57  55  94 W6        29.93R
THIEF RVR FALL CLEAR     61  55  82 W8        29.98R
CROOKSTON      CLEAR     61  57  88 W8        29.99R
FOSSTON        CLEAR     55  54  94 CALM      30.00R
DETROIT LAKES  CLEAR     63  55  77 W9        30.04R
MOORHEAD       CLEAR     61  55  82 W6        30.03S
PARK RAPIDS    CLEAR     60  55  83 W7        30.01R
MAHNOMEN       FAIR      58  55  89 SW5       30.01R
$$
MNZ006-009>011-018-025>026-301300-
   North Central Minnesota

CITY           SKY/WX    TMP DP  RH WIND       PRES   REMARKS
BAUDETTE       PTCLDY    58  54  86 W3        29.92R
FLAG ISLAND    MOCLDY    61  55  82 W7        29.90R
INTL FALLS     SUNNY     57  54  89 W7        29.91R
6HR MIN TEMP:  56; 6HR MAX TEMP:  62;

WASKISH        CLOUDY    64  59  82 W5        29.95R
BIG FORK       SUNNY     61  57  88 CALM      29.96R
LONGVILLE      CLEAR     61  57  88 W5        29.98S
GRAND RAPIDS   SUNNY     63  55  77 W7        29.97R
CRANE LAKE     SUNNY     57  55  94 NW1       29.92R
ORR            SUNNY     59  52  77 W5        29.91R
COOK           SUNNY     59  54  82 W7        29.93R
WALKER         FAIR      60  55  85 W7        29.98S
$$
MNZ012-019>021-037-301300-
   Northeast Minnesota

CITY           SKY/WX    TMP DP  RH WIND       PRES   REMARKS
DULUTH         SUNNY     64  56  75 W13       29.94R
6HR MIN TEMP:  59; 6HR MAX TEMP:  64;

ELY            SUNNY     61  54  77 W9        29.90R
HIBBING        SUNNY     63  56  78 W9        29.94R
EVELETH        SUNNY     59  54  82 W5        29.94R
DULUTH HARBOR  SUNNY     66  59  77 W13       29.93R
TWO HARBORS    SUNNY     66  59  77 W5        29.90R
SILVER BAY     SUNNY     64  55  72 W6        29.87S
GRAND MARAIS     N/A     62  52  69 VRB6      29.81R
G MARAIS ARPRT   N/A     61  48  63 W15G26    29.84R
$$
MNZ029>031-032-039>041-046>048-054>057-064-301300-
   West Central Minnesota

CITY           SKY/WX    TMP DP  RH WIND       PRES   REMARKS
FERGUS FALLS   CLEAR     57  55  94 CALM      30.05S
WHEATON        CLEAR     61  54  77 W6        30.08S
MORRIS         CLEAR     61  55  82 W6        30.06R
ALEXANDRIA     CLEAR     63  54  72 W13       30.07R
ELBOW LAKE     FAIR      57  54  88 W6        30.06R
WADENA         CLEAR     57  54  88 W6        30.02S
GLENWOOD       CLEAR     61  54  77 W10       30.07S
APPLETON       CLEAR     59  54  82 W7        30.07S
BENSON         CLEAR     59  52  77 W3        30.07R
ORTONVILLE     CLEAR     63  54  72 W7        30.08S
MADISON        CLEAR     61  54  77 W7        30.09R
WILLMAR        FAIR      57  55  94 W3        30.09R
$$
MNZ033>034-036-042>043-049>051-058-059-301300-
   Central Minnesota

CITY           SKY/WX    TMP DP  RH WIND       PRES   REMARKS
ST CLOUD       CLEAR     63  54  72 W9        30.03R
6HR MIN TEMP:  60; 6HR MAX TEMP:  67;

SAUK CENTRE    FAIR      59  54  82 W7        30.05R
PAYNESVILLE    CLEAR     56  54  92 SW8       30.07R
AITKIN         CLEAR     63  55  77 SW3       29.97S
PINE RIVER     CLEAR     63  55  77 W5        30.03R
BRAINERD       CLEAR     64  56  75 W8        30.00R
STAPLES        CLEAR     61  54  77 W9        30.02R
LONG PRAIRIE   FAIR      61  54  77 SW9       30.04S
LITTLE FALLS   PTCLDY    63  52  67 W6        30.02R
LITCHFIELD     CLEAR     64  55  72 W8        30.07S
BUFFALO        CLEAR     63  54  73 SW5       30.05R
MAPLE LAKE     CLEAR     63  57  82 W3        30.05R
$$
MNZ037-044-045-052-053-301300-
   East Central Minnesota

CITY           SKY/WX    TMP DP  RH WIND       PRES   REMARKS
PRINCETON      CLEAR     64  55  72 W6        30.02S
MORA           CLEAR     61  54  77 W3        30.02R
CAMBRIDGE      CLEAR     66  54  63 W7        30.00R
RUSH CITY      MOSUNNY   64  56  74 W8        30.01R
MOOSE LAKE     SUNNY     63  55  77 W7        29.96R
HINCKLEY       FAIR      63  57  82 W8        29.99R
CLOQUET        SUNNY     63  55  77 W8        29.96R
MCGREGOR       SUNNY     63  55  77 W7        29.98S
$$
MNZ071>073-080-081-089-090-097-098-301300-
   Southwest Minnesota

CITY           SKY/WX    TMP DP  RH WIND       PRES   REMARKS
MONTEVIDEO     CLEAR     61  55  82 NW3       30.10R
GRANITE FALLS  CLEAR     60  55  83 SW6       30.09S
CANBY          CLEAR     65  55  69 W8        30.11R
MARSHALL       CLEAR     64  52  63 W9        30.11R
REDWOOD FALLS  CLEAR     66  53  63 W10       30.08R
OLIVIA         CLEAR     57  50  77 W6        30.07R
PIPESTONE      CLEAR     59  54  82 CALM      30.13F
WINDOM         CLEAR     57  54  88 CALM      30.12S
WORTHINGTON    CLEAR     61  52  72 W5        30.13S
JACKSON        CLEAR     63  55  77 SW6       30.12S
TRACY          CLEAR     61  55  82 W7        30.11S
SLAYTON        CLEAR     62  54  75 CALM      30.13S
$$
MNZ065>067-074>077-082>085-091>093-301300-
   South Central Minnesota

CITY           SKY/WX    TMP DP  RH WIND       PRES   REMARKS
MANKATO        CLEAR     61  54  77 W8        30.08R
NEW ULM        CLEAR     57  55  94 W5        30.09R
ST JAMES       CLEAR     63  57  82 SW6       30.10S
FAIRMONT       CLEAR     64  54  68 W7        30.11R
GLENCOE        CLEAR     60  56  86 W3        30.06R
FARIBAULT      CLEAR     63  57  82 SW6       30.07R
OWATONNA       CLEAR     61  55  82 SW5       30.08R
WASECA         CLEAR     55  54  94 SW3       30.10R
ALBERT LEA     CLEAR     64  55  72 W3        30.10R
$$
MNZ078>079-086>088-094>096-301300-
   Southeast Minnesota

CITY           SKY/WX    TMP DP  RH WIND       PRES   REMARKS
ROCHESTER      CLEAR     61  55  81 W10       30.09R
6HR MIN TEMP:  59; 6HR MAX TEMP:  62;

RED WING       SUNNY     63  57  82 CALM      30.03R
STANTON        CLEAR     64  56  74 SW6       30.05R
DODGE CENTER   CLEAR     57  55  94 SW8       30.08S
WINONA         SUNNY     61  57  88 CALM      30.04S
AUSTIN         CLEAR     64  55  72 W5        30.09S
PRESTON        SUNNY     62  54  74 W9        30.08S
$$
ABBREVIATIONS USED IN REMARKS
   TC - TEMPERATURES IN CELSIUS
  WCI - WIND CHILL INDEX
   HX - HEAT INDEX
  VSB - VISIBILITY
$$


USA.gov is the U.S. government's official web portal to all federal, state and local government web resources and services.